CZ-4C DEB, 43263

Orbit data source: Space-Track

CZ-4C DEB, 43263 is space debris in SSO originally from a launch on Sat, 31 Mar 2018 UTC launched from the Taiyaun Space Center, China (TSC). Debris objects in space refer to the collection of defunct objects orbiting the Earth. Examples of debris include non-operational satellites, rocket bodies, and fragments generated from explosions, collisions, or faulty payload assembly.

Loading next visibility...
CZ-4C DEB details
Identifier
43263, 2018-031E
Orbit
SSO
Last TLE update21 hours ago
Origin
Flag of CNCNSA (CN / PRC)
ManufacturerUnknown
MissionSpacecraft
Bus & MotorUnknown
MassUnknown
Launch date (UTC)
2018-03-31 (7 years ago)
Launch vehicleUnknown
Launch site
Taiyaun Space Center, China (TSC)
Object type
Payload
Rocket body
Debris
Shape & HBRUnknown
Radar Cross SectionSmall (<0.1 m²)

Expand to show TLE details & history

TLE from 21 hours ago
0 CZ-4C DEB
1 43263U 18031E   24360.60100904  .00007111  00000-0  10112-2 0  9993
2 43263  97.7066  16.6061 0039988 294.9215  64.7842 14.76620013361768
Epoch: 2024-12-25T14:25Z
Definitive object data (Epoch: 2024-12-25T14:25:27.181Z)
Latitude-0.00004°
Longitude65.65043°
Altitude631.169 km
Speed7.549 km/s
True Right ascension01h 06m 25s
True Declination0° 00' 00"
Sunlit
Object was in daylight at TLE epoch
Visualization TLE readout
Latitude13.94507°
Longitude64.5787°
Altitude638.265 km
Speed7.542 km/s
Apparent Right ascension00h 10m 55s
Apparent Declination-11° 56' 25"
Sunlit
Object is in daylight
Visualization observer readout
Local Sidereal Time10:59:08
Azimuth325.498° NNW
Elevation-57.848°
Doppler factor1
Orbital elements
Apogee altitude665.103 km
Perigee altitude608.998 km
Semi-major axis7,015.187 km
Eccentricity0.0039988
Inclination97.7066°
RAAN16.6061°
Arg. of periapsis294.9215°
True anomaly65.19964°
Mean anomaly64.7842°
Eccentric anomaly64.99183°
Mean motion3.69389 °/min
BSTAR0.0010112
Orbital period97.46 mins
Loading maneuver chart data...
Loading historical data...
Loading historical data...
Loading historical data...
Loading historical data...
Loading historical data...
Loading historical data...
Loading historical data...

CZ-4C DEB Visibility forecast

Observer location: undefined°, undefined

Span
Click to sort rows by Start time (UTC) header in descending order
Start Az.
Max El. time (UTC)
Max El. Az.
Max El.
End time (UTC)
End Az.
8 mins2024-12-26 13:45:45.741Z25.452° NE2024-12-26 13:49:45.741Z97.547° ESE36.724°2024-12-26 13:53:45.741Z172.397° S
6 mins2024-12-27 00:43:45.741Z122.321° SE2024-12-27 00:45:45.741Z79.488° E30.149°2024-12-27 00:49:45.741Z7.341° NNE
5 mins2024-12-27 02:20:45.741Z234.903° WSW2024-12-27 02:22:45.741Z268.854° W18.819°2024-12-27 02:25:45.741Z312.622° NW
|